Time,TemperatureF,DewpointF,PressureIn,WindDirection,WindDirectionDegrees,WindSpeedMPH,WindSpeedGustMPH,Humidity,HourlyPrecipIn,Conditions,Clouds,dailyrainin,SoftwareType,DateUTC
2013-05-18 00:02:00,67.2,66.3,29.96,SE,130,0.0,0.0,97,0.00,RA,FEW,0.00,WeatherDisplay:10.37,2013-05-18 05:02:00,
2013-05-18 00:07:00,67.2,66.3,29.96,SE,130,0.0,0.0,97,0.00,RA,FEW,0.00,WeatherDisplay:10.37,2013-05-18 05:07:00,
2013-05-18 00:12:00,67.1,66.2,29.96,SE,130,0.0,0.0,97,0.00,OVC,FEW,0.00,WeatherDisplay:10.37,2013-05-18 05:12:00,
2013-05-18 00:17:00,67.1,66.2,29.96,SE,130,0.0,0.0,97,0.00,OVC,FEW,0.00,WeatherDisplay:10.37,2013-05-18 05:17:00,
2013-05-18 00:22:00,67.0,66.1,29.96,SE,130,0.0,0.0,97,0.00,OVC,FEW,0.00,WeatherDisplay:10.37,2013-05-18 05:22:00,
2013-05-18 00:27:00,67.0,66.1,29.96,SE,130,0.0,0.0,97,0.00,OVC,FEW,0.00,WeatherDisplay:10.37,2013-05-18 05:27:00,
2013-05-18 00:32:00,67.0,66.1,29.95,SE,130,0.0,0.0,97,0.00,OVC,FEW,0.00,WeatherDisplay:10.37,2013-05-18 05:32:00,
2013-05-18 00:37:00,67.0,66.1,29.95,SE,130,0.0,0.0,97,0.00,OVC,FEW,0.00,WeatherDisplay:10.37,2013-05-18 05:37:00,
2013-05-18 00:42:00,67.0,66.1,29.95,SE,130,0.0,0.0,97,0.00,OVC,FEW,0.00,WeatherDisplay:10.37,2013-05-18 05:42:00,
2013-05-18 00:47:00,67.0,66.1,29.95,SE,130,1.2,1.2,97,0.00,OVC,FEW,0.00,WeatherDisplay:10.37,2013-05-18 05:47:00,
2013-05-18 00:52:00,67.0,66.1,29.95,SE,130,0.0,0.0,97,0.00,OVC,FEW,0.00,WeatherDisplay:10.37,2013-05-18 05:52:00,
2013-05-18 00:57:00,67.0,66.1,29.95,SE,130,1.2,1.2,97,0.00,OVC,FEW,0.00,WeatherDisplay:10.37,2013-05-18 05:57:00,
2013-05-18 01:02:00,67.0,66.1,29.95,SE,130,0.0,0.0,97,0.00,OVC,FEW,0.00,WeatherDisplay:10.37,2013-05-18 06:02:00,
2013-05-18 01:07:00,67.0,66.1,29.94,SE,130,0.0,0.0,97,0.00,OVC,FEW,0.00,WeatherDisplay:10.37,2013-05-18 06:07:00,
2013-05-18 01:12:00,67.0,66.1,29.94,SE,130,0.0,0.0,97,0.00,OVC,FEW,0.00,WeatherDisplay:10.37,2013-05-18 06:12:00,
2013-05-18 01:17:00,67.0,66.1,29.94,SE,130,0.0,0.0,97,0.00,OVC,FEW,0.00,WeatherDisplay:10.37,2013-05-18 06:17:00,
2013-05-18 01:22:00,66.9,66.0,29.94,SE,130,0.0,0.0,97,0.00,OVC,FEW,0.00,WeatherDisplay:10.37,2013-05-18 06:22:00,
2013-05-18 01:27:00,66.9,66.0,29.94,SE,130,0.0,0.0,97,0.00,OVC,FEW,0.00,WeatherDisplay:10.37,2013-05-18 06:27:00,
2013-05-18 01:32:00,66.9,66.0,29.94,SE,130,0.0,0.0,97,0.00,OVC,FEW,0.00,WeatherDisplay:10.37,2013-05-18 06:32:00,
2013-05-18 01:37:00,66.8,65.9,29.94,SE,130,0.0,0.0,97,0.00,OVC,FEW,0.00,WeatherDisplay:10.37,2013-05-18 06:37:00,
2013-05-18 01:42:00,66.8,65.9,29.94,SE,130,0.0,0.0,97,0.00,OVC,FEW,0.00,WeatherDisplay:10.37,2013-05-18 06:42:00,
2013-05-18 01:47:00,66.9,66.3,29.93,SE,130,0.0,0.0,98,0.00,OVC,FEW,0.00,WeatherDisplay:10.37,2013-05-18 06:47:00,
2013-05-18 01:52:00,66.9,66.3,29.93,SE,130,0.0,0.0,98,0.00,OVC,FEW,0.00,WeatherDisplay:10.37,2013-05-18 06:52:00,
2013-05-18 01:57:00,66.9,66.3,29.93,SE,130,0.0,0.0,98,0.00,OVC,FEW,0.00,WeatherDisplay:10.37,2013-05-18 06:57:00,
2013-05-18 02:02:00,66.9,66.3,29.93,SE,130,0.0,0.0,98,0.00,OVC,FEW,0.00,WeatherDisplay:10.37,2013-05-18 07:02:00,
2013-05-18 02:07:00,66.9,66.3,29.93,SE,130,0.0,0.0,98,0.00,OVC,FEW,0.00,WeatherDisplay:10.37,2013-05-18 07:07:00,
2013-05-18 02:12:00,66.9,66.3,29.93,SE,130,0.0,0.0,98,0.00,OVC,FEW,0.00,WeatherDisplay:10.37,2013-05-18 07:12:00,
2013-05-18 02:17:00,67.0,66.4,29.93,SE,130,0.0,0.0,98,0.00,OVC,FEW,0.00,WeatherDisplay:10.37,2013-05-18 07:17:00,
2013-05-18 02:22:00,67.0,66.4,29.93,SE,130,0.0,0.0,98,0.00,OVC,FEW,0.00,WeatherDisplay:10.37,2013-05-18 07:22:00,
2013-05-18 02:27:00,67.0,66.4,29.93,SE,130,0.0,0.0,98,0.00,OVC,FEW,0.00,WeatherDisplay:10.37,2013-05-18 07:27:00,
2013-05-18 02:32:00,67.0,66.4,29.93,SE,130,0.0,0.0,98,0.00,OVC,FEW,0.00,WeatherDisplay:10.37,2013-05-18 07:32:00,
2013-05-18 02:37:00,66.9,66.0,29.93,SE,130,0.0,0.0,97,0.00,OVC,FEW,0.00,WeatherDisplay:10.37,2013-05-18 07:37:00,
2013-05-18 02:42:00,66.7,65.8,29.93,SE,130,0.0,0.0,97,0.00,OVC,FEW,0.00,WeatherDisplay:10.37,2013-05-18 07:42:00,
2013-05-18 02:47:00,66.7,66.1,29.93,SE,130,0.0,0.0,98,0.00,OVC,FEW,0.00,WeatherDisplay:10.37,2013-05-18 07:47:00,
2013-05-18 02:52:00,66.8,66.2,29.94,SE,130,0.0,0.0,98,0.01,RA,FEW,0.01,WeatherDisplay:10.37,2013-05-18 07:52:00,
2013-05-18 02:57:00,66.9,66.3,29.93,SE,130,0.0,0.0,98,0.01,RA,FEW,0.01,WeatherDisplay:10.37,2013-05-18 07:57:00,
2013-05-18 03:02:00,67.0,66.4,29.94,SE,130,0.0,0.0,98,0.01,OVC,FEW,0.01,WeatherDisplay:10.37,2013-05-18 08:02:00,
2013-05-18 03:07:00,67.0,66.4,29.94,SE,130,0.0,0.0,98,0.01,OVC,FEW,0.01,WeatherDisplay:10.37,2013-05-18 08:07:00,
2013-05-18 03:12:00,67.0,66.4,29.94,SE,130,0.0,0.0,98,0.01,OVC,FEW,0.01,WeatherDisplay:10.37,2013-05-18 08:12:00,
2013-05-18 03:17:00,67.1,66.5,29.94,SE,130,0.0,0.0,98,0.01,OVC,FEW,0.01,WeatherDisplay:10.37,2013-05-18 08:17:00,
2013-05-18 03:23:00,67.1,66.5,29.94,SE,130,0.0,0.0,98,0.01,OVC,FEW,0.01,WeatherDisplay:10.37,2013-05-18 08:23:00,
2013-05-18 03:28:00,67.1,66.5,29.94,SE,130,0.0,0.0,98,0.01,OVC,FEW,0.01,WeatherDisplay:10.37,2013-05-18 08:28:00,
2013-05-18 03:33:00,67.1,66.5,29.94,SE,130,0.0,0.0,98,0.01,OVC,FEW,0.01,WeatherDisplay:10.37,2013-05-18 08:33:00,
2013-05-18 03:38:00,67.1,66.5,29.94,SE,130,0.0,0.0,98,0.01,OVC,FEW,0.01,WeatherDisplay:10.37,2013-05-18 08:38:00,
2013-05-18 03:43:00,67.0,66.4,29.94,SE,130,0.0,0.0,98,0.01,OVC,FEW,0.01,WeatherDisplay:10.37,2013-05-18 08:43:00,
2013-05-18 03:48:00,67.0,66.4,29.94,SE,130,0.0,0.0,98,0.01,OVC,FEW,0.01,WeatherDisplay:10.37,2013-05-18 08:48:00,
2013-05-18 03:53:00,67.0,66.4,29.94,SE,130,0.0,0.0,98,0.00,OVC,FEW,0.01,WeatherDisplay:10.37,2013-05-18 08:53:00,
2013-05-18 03:58:00,67.1,66.5,29.94,SE,130,0.0,0.0,98,0.00,OVC,FEW,0.01,WeatherDisplay:10.37,2013-05-18 08:58:00,
2013-05-18 04:03:00,67.1,66.5,29.94,SE,130,0.0,0.0,98,0.00,-DZ,FEW,0.01,WeatherDisplay:10.37,2013-05-18 09:03:00,
2013-05-18 04:08:00,67.1,66.5,29.94,SE,130,0.0,0.0,98,0.00,-DZ,FEW,0.01,WeatherDisplay:10.37,2013-05-18 09:08:00,
2013-05-18 04:13:00,67.1,66.5,29.94,SE,130,0.0,0.0,98,0.00,-DZ,FEW,0.01,WeatherDisplay:10.37,2013-05-18 09:13:00,
2013-05-18 04:18:00,67.1,66.5,29.95,SE,130,0.0,0.0,98,0.00,-DZ,FEW,0.01,WeatherDisplay:10.37,2013-05-18 09:18:00,
2013-05-18 04:23:00,67.0,66.4,29.95,SE,130,0.0,0.0,98,0.00,-DZ,FEW,0.01,WeatherDisplay:10.37,2013-05-18 09:23:00,
2013-05-18 04:28:00,67.0,66.4,29.95,SE,130,0.0,0.0,98,0.00,-DZ,FEW,0.01,WeatherDisplay:10.37,2013-05-18 09:28:00,
2013-05-18 04:33:00,67.0,66.4,29.95,SE,130,0.0,0.0,98,0.00,-DZ,FEW,0.01,WeatherDisplay:10.37,2013-05-18 09:33:00,
2013-05-18 04:38:00,67.0,66.4,29.95,SE,130,0.0,0.0,98,0.00,-DZ,FEW,0.01,WeatherDisplay:10.37,2013-05-18 09:38:00,
2013-05-18 04:43:00,66.8,66.2,29.95,SE,130,0.0,0.0,98,0.00,-DZ,FEW,0.01,WeatherDisplay:10.37,2013-05-18 09:43:00,
2013-05-18 04:48:00,66.9,66.3,29.95,SE,130,0.0,0.0,98,0.00,-DZ,FEW,0.01,WeatherDisplay:10.37,2013-05-18 09:48:00,
2013-05-18 04:53:00,66.9,66.3,29.95,SE,130,0.0,0.0,98,0.00,OVC,FEW,0.01,WeatherDisplay:10.37,2013-05-18 09:53:00,
2013-05-18 04:58:00,66.8,66.2,29.95,SE,130,0.0,0.0,98,0.00,OVC,FEW,0.01,WeatherDisplay:10.37,2013-05-18 09:58:00,
2013-05-18 05:03:00,66.8,66.2,29.95,SE,130,0.0,0.0,98,0.00,BKN,FEW,0.01,WeatherDisplay:10.37,2013-05-18 10:03:00,
2013-05-18 05:08:00,66.9,66.3,29.95,SE,130,0.0,0.0,98,0.00,BKN,FEW,0.01,WeatherDisplay:10.37,2013-05-18 10:08:00,
2013-05-18 05:13:00,66.8,66.2,29.95,SE,130,0.0,0.0,98,0.00,BKN,FEW,0.01,WeatherDisplay:10.37,2013-05-18 10:13:00,
2013-05-18 05:18:00,66.9,66.3,29.95,SE,130,0.0,0.0,98,0.00,BKN,FEW,0.01,WeatherDisplay:10.37,2013-05-18 10:18:00,
2013-05-18 05:23:00,66.9,66.3,29.96,SE,130,0.0,0.0,98,0.00,BKN,FEW,0.01,WeatherDisplay:10.37,2013-05-18 10:23:00,
2013-05-18 05:28:00,66.9,66.3,29.96,SE,130,0.0,0.0,98,0.00,BKN,FEW,0.01,WeatherDisplay:10.37,2013-05-18 10:28:00,
2013-05-18 05:33:00,67.0,66.4,29.96,SE,130,0.0,0.0,98,0.00,BKN,FEW,0.01,WeatherDisplay:10.37,2013-05-18 10:33:00,
2013-05-18 05:38:00,67.0,66.4,29.96,SE,130,0.0,0.0,98,0.00,BKN,FEW,0.01,WeatherDisplay:10.37,2013-05-18 10:38:00,
2013-05-18 05:43:00,67.0,66.4,29.96,SE,130,0.0,0.0,98,0.00,BKN,FEW,0.01,WeatherDisplay:10.37,2013-05-18 10:43:00,
2013-05-18 05:48:00,67.0,66.4,29.96,SE,130,0.0,0.0,98,0.00,BKN,FEW,0.01,WeatherDisplay:10.37,2013-05-18 10:48:00,
2013-05-18 05:53:00,66.8,66.2,29.97,SE,130,0.0,0.0,98,0.00,BKN,FEW,0.01,WeatherDisplay:10.37,2013-05-18 10:53:00,
2013-05-18 05:58:00,66.7,66.1,29.97,SE,130,0.0,0.0,98,0.00,BKN,FEW,0.01,WeatherDisplay:10.37,2013-05-18 10:58:00,
2013-05-18 06:03:00,66.6,66.0,29.97,SE,130,0.0,0.0,98,0.00,-DZ,FEW,0.01,WeatherDisplay:10.37,2013-05-18 11:03:00,
2013-05-18 06:08:00,66.8,66.2,29.97,SE,130,0.0,0.0,98,0.00,-DZ,FEW,0.01,WeatherDisplay:10.37,2013-05-18 11:08:00,
2013-05-18 06:13:00,66.8,66.2,29.97,SE,130,0.0,0.0,98,0.00,-DZ,FEW,0.01,WeatherDisplay:10.37,2013-05-18 11:13:00,
2013-05-18 06:18:00,66.8,66.2,29.97,SE,130,0.0,0.0,98,0.00,-DZ,FEW,0.01,WeatherDisplay:10.37,2013-05-18 11:18:00,
2013-05-18 06:23:00,66.9,66.3,29.97,SE,130,0.0,0.0,98,0.00,-DZ,FEW,0.01,WeatherDisplay:10.37,2013-05-18 11:23:00,
2013-05-18 06:28:00,67.0,66.4,29.97,SE,130,0.0,0.0,98,0.00,-DZ,FEW,0.01,WeatherDisplay:10.37,2013-05-18 11:28:00,
2013-05-18 06:33:00,67.1,66.5,29.98,SE,130,0.0,0.0,98,0.00,-DZ,FEW,0.01,WeatherDisplay:10.37,2013-05-18 11:33:00,
2013-05-18 06:38:00,67.1,66.5,29.98,SE,130,0.0,0.0,98,0.00,BKN,FEW,0.01,WeatherDisplay:10.37,2013-05-18 11:38:00,
2013-05-18 06:43:00,67.2,66.6,29.98,SE,130,0.0,0.0,98,0.00,BKN,FEW,0.01,WeatherDisplay:10.37,2013-05-18 11:43:00,
2013-05-18 06:48:00,67.2,66.6,29.98,SE,130,0.0,0.0,98,0.00,BKN,FEW,0.01,WeatherDisplay:10.37,2013-05-18 11:48:00,
2013-05-18 06:53:00,67.3,66.7,29.98,SE,130,0.0,0.0,98,0.00,BKN,FEW,0.01,WeatherDisplay:10.37,2013-05-18 11:53:00,
2013-05-18 06:58:00,67.4,66.8,29.98,SE,130,0.0,0.0,98,0.00,BKN,FEW,0.01,WeatherDisplay:10.37,2013-05-18 11:58:00,
2013-05-18 07:03:00,67.7,67.1,29.98,SE,130,0.0,0.0,98,0.00,BKN,FEW,0.01,WeatherDisplay:10.37,2013-05-18 12:03:00,
2013-05-18 07:08:00,67.8,67.2,29.98,SE,130,0.0,0.0,98,0.00,BKN,FEW,0.01,WeatherDisplay:10.37,2013-05-18 12:08:00,
2013-05-18 07:13:00,67.8,67.2,29.98,SE,130,0.0,0.0,98,0.00,BKN,FEW,0.01,WeatherDisplay:10.37,2013-05-18 12:13:00,
2013-05-18 07:18:00,67.7,66.8,29.98,SE,130,0.0,0.0,97,0.00,BKN,FEW,0.01,WeatherDisplay:10.37,2013-05-18 12:18:00,
2013-05-18 07:23:00,67.8,66.9,29.99,SE,130,0.0,0.0,97,0.00,OVC,FEW,0.01,WeatherDisplay:10.37,2013-05-18 12:23:00,
2013-05-18 07:28:00,67.8,66.9,29.99,South,190,0.0,0.0,97,0.00,OVC,FEW,0.01,WeatherDisplay:10.37,2013-05-18 12:28:00,
2013-05-18 07:33:00,67.9,67.0,29.99,South,190,0.0,0.0,97,0.00,OVC,FEW,0.01,WeatherDisplay:10.37,2013-05-18 12:33:00,
2013-05-18 07:38:00,67.8,66.9,29.99,South,190,0.0,0.0,97,0.00,OVC,FEW,0.01,WeatherDisplay:10.37,2013-05-18 12:38:00,
2013-05-18 07:43:00,67.9,67.0,29.99,South,190,0.0,0.0,97,0.00,OVC,FEW,0.01,WeatherDisplay:10.37,2013-05-18 12:43:00,
2013-05-18 07:48:00,68.1,67.2,29.99,South,190,0.0,0.0,97,0.00,OVC,FEW,0.01,WeatherDisplay:10.37,2013-05-18 12:48:00,
2013-05-18 07:53:00,68.1,66.9,29.99,South,190,1.2,1.2,96,0.00,OVC,FEW,0.01,WeatherDisplay:10.37,2013-05-18 12:53:00,
2013-05-18 07:58:00,68.1,66.9,29.99,South,190,0.0,0.0,96,0.00,OVC,FEW,0.01,WeatherDisplay:10.37,2013-05-18 12:58:00,
2013-05-18 08:03:00,68.1,66.9,29.99,SSW,192,0.0,0.0,96,0.00,-DZ,FEW,0.01,WeatherDisplay:10.37,2013-05-18 13:03:00,
2013-05-18 08:08:00,68.3,67.1,29.99,SSW,192,0.0,0.0,96,0.00,-DZ,FEW,0.01,WeatherDisplay:10.37,2013-05-18 13:08:00,
2013-05-18 08:13:00,68.5,67.3,29.99,SSW,193,1.2,1.2,96,0.00,-DZ,FEW,0.01,WeatherDisplay:10.37,2013-05-18 13:13:00,
2013-05-18 08:18:00,68.6,67.4,30.00,SSW,205,0.0,0.0,96,0.00,-DZ,FEW,0.01,WeatherDisplay:10.37,2013-05-18 13:18:00,
2013-05-18 08:23:00,68.6,67.4,30.00,SSW,211,2.3,2.3,96,0.00,OVC,FEW,0.01,WeatherDisplay:10.37,2013-05-18 13:23:00,
2013-05-18 08:28:00,68.8,67.3,30.00,SSW,211,0.0,0.0,95,0.00,OVC,FEW,0.01,WeatherDisplay:10.37,2013-05-18 13:28:00,
2013-05-18 08:33:00,69.1,67.6,30.00,SW,216,1.1,1.1,95,0.00,OVC,FEW,0.01,WeatherDisplay:10.37,2013-05-18 13:33:00,
2013-05-18 08:38:00,69.4,67.6,30.00,WNW,300,0.0,0.0,94,0.00,-DZ,FEW,0.01,WeatherDisplay:10.37,2013-05-18 13:38:00,
2013-05-18 08:44:00,69.6,67.8,30.00,WNW,300,2.3,2.3,94,0.00,-DZ,FEW,0.01,WeatherDisplay:10.37,2013-05-18 13:44:00,
2013-05-18 08:49:00,69.7,67.6,30.00,WNW,300,0.0,0.0,93,0.00,-DZ,FEW,0.01,WeatherDisplay:10.37,2013-05-18 13:49:00,
2013-05-18 08:54:00,70.2,68.7,30.00,WNW,300,0.0,0.0,95,0.00,OVC,FEW,0.01,WeatherDisplay:10.37,2013-05-18 13:54:00,
2013-05-18 08:59:00,70.8,69.0,30.00,WNW,300,1.2,1.2,94,0.00,OVC,FEW,0.01,WeatherDisplay:10.37,2013-05-18 13:59:00,
2013-05-18 09:04:00,71.6,69.2,30.00,WNW,291,2.3,2.3,92,0.00,OVC,FEW,0.01,WeatherDisplay:10.37,2013-05-18 14:04:00,
2013-05-18 09:09:00,71.9,68.5,29.99,WSW,250,0.0,0.0,89,0.00,OVC,FEW,0.01,WeatherDisplay:10.37,2013-05-18 14:09:00,
2013-05-18 09:14:00,72.0,68.9,29.99,WNW,294,4.6,4.6,90,0.00,OVC,FEW,0.01,WeatherDisplay:10.37,2013-05-18 14:14:00,
2013-05-18 09:19:00,71.6,68.2,29.99,NW,322,0.0,0.0,89,0.00,OVC,FEW,0.01,WeatherDisplay:10.37,2013-05-18 14:19:00,
2013-05-18 09:24:00,71.3,68.2,29.99,NW,322,0.0,0.0,90,0.00,OVC,FEW,0.01,WeatherDisplay:10.37,2013-05-18 14:24:00,
2013-05-18 09:29:00,71.2,68.1,29.99,NW,319,1.2,1.2,90,0.00,OVC,FEW,0.01,WeatherDisplay:10.37,2013-05-18 14:29:00,
2013-05-18 09:34:00,71.6,68.8,29.99,WNW,288,1.2,0.0,91,0.00,OVC,FEW,0.01,WeatherDisplay:10.37,2013-05-18 14:34:00,
2013-05-18 09:39:00,72.4,68.6,29.99,NW,307,4.6,4.6,88,0.00,OVC,FEW,0.01,WeatherDisplay:10.37,2013-05-18 14:39:00,
2013-05-18 09:44:00,73.0,70.2,29.99,WNW,286,4.6,4.6,91,0.00,OVC,FEW,0.01,WeatherDisplay:10.37,2013-05-18 14:44:00,
2013-05-18 09:49:00,73.1,68.7,29.99,WNW,303,3.5,3.5,86,0.00,OVC,FEW,0.01,WeatherDisplay:10.37,2013-05-18 14:49:00,
2013-05-18 09:54:00,73.0,68.2,29.99,NW,319,3.5,3.5,85,0.00,SCT,FEW,0.01,WeatherDisplay:10.37,2013-05-18 14:54:00,
2013-05-18 09:59:00,73.0,68.9,29.99,West,279,1.2,1.2,87,0.00,SCT,FEW,0.01,WeatherDisplay:10.37,2013-05-18 14:59:00,
2013-05-18 10:04:00,73.5,69.4,29.99,WNW,293,2.3,2.3,87,0.00,OVC,FEW,0.01,WeatherDisplay:10.37,2013-05-18 15:04:00,
2013-05-18 10:09:00,74.0,69.9,29.99,SW,236,0.0,0.0,87,0.00,OVC,FEW,0.01,WeatherDisplay:10.37,2013-05-18 15:09:00,
2013-05-18 10:14:00,73.7,68.2,29.99,North,5,2.3,2.3,83,0.00,OVC,FEW,0.01,WeatherDisplay:10.37,2013-05-18 15:14:00,
2013-05-18 10:19:00,73.9,68.1,29.99,WNW,295,5.8,5.8,82,0.00,OVC,FEW,0.01,WeatherDisplay:10.37,2013-05-18 15:19:00,
2013-05-18 10:24:00,74.2,68.3,29.99,NW,316,2.3,2.3,82,0.00,OVC,FEW,0.01,WeatherDisplay:10.37,2013-05-18 15:24:00,
2013-05-18 10:29:00,74.7,69.2,29.99,North,360,3.5,3.5,83,0.00,OVC,FEW,0.01,WeatherDisplay:10.37,2013-05-18 15:29:00,
2013-05-18 10:34:00,74.9,69.0,29.99,WNW,299,2.3,2.3,82,0.00,OVC,FEW,0.01,WeatherDisplay:10.37,2013-05-18 15:34:00,
2013-05-18 10:39:00,75.0,68.8,29.99,NNW,336,4.6,4.6,81,0.00,BKN,FEW,0.01,WeatherDisplay:10.37,2013-05-18 15:39:00,
2013-05-18 10:44:00,74.9,67.9,29.99,West,261,2.3,2.3,79,0.00,BKN,FEW,0.01,WeatherDisplay:10.37,2013-05-18 15:44:00,
2013-05-18 10:49:00,74.7,69.2,29.99,WNW,288,4.6,4.6,83,0.00,BKN,FEW,0.01,WeatherDisplay:10.37,2013-05-18 15:49:00,
2013-05-18 10:54:00,74.6,68.4,29.99,NW,309,1.2,1.2,81,0.00,BKN,FEW,0.01,WeatherDisplay:10.37,2013-05-18 15:54:00,
2013-05-18 10:59:00,74.8,69.3,29.99,North,5,3.5,3.5,83,0.00,BKN,FEW,0.01,WeatherDisplay:10.37,2013-05-18 15:59:00,
2013-05-18 11:04:00,74.9,68.7,29.99,NE,40,3.5,3.5,81,0.00,BKN,FEW,0.01,WeatherDisplay:10.37,2013-05-18 16:04:00,
2013-05-18 11:09:00,75.0,68.4,29.99,NNW,330,4.6,4.6,80,0.00,BKN,FEW,0.01,WeatherDisplay:10.37,2013-05-18 16:09:00,
2013-05-18 11:14:00,74.9,69.0,30.00,WSW,242,3.5,3.5,82,0.00,BKN,FEW,0.01,WeatherDisplay:10.37,2013-05-18 16:14:00,
2013-05-18 11:19:00,74.7,68.8,30.00,North,350,3.5,3.5,82,0.00,BKN,FEW,0.01,WeatherDisplay:10.37,2013-05-18 16:19:00,
2013-05-18 11:24:00,75.0,68.8,30.00,NNW,335,4.6,4.6,81,0.00,OVC,FEW,0.01,WeatherDisplay:10.37,2013-05-18 16:24:00,
2013-05-18 11:29:00,75.0,68.0,29.99,NW,314,3.5,3.5,79,0.00,OVC,FEW,0.01,WeatherDisplay:10.37,2013-05-18 16:29:00,
2013-05-18 11:34:00,74.9,67.2,29.99,North,355,3.2,3.2,77,0.00,OVC,FEW,0.01,WeatherDisplay:10.37,2013-05-18 16:34:00,
2013-05-18 11:39:00,74.8,68.2,30.00,West,275,3.5,0.0,80,0.00,OVC,FEW,0.01,WeatherDisplay:10.37,2013-05-18 16:39:00,
2013-05-18 11:44:00,75.0,69.1,30.00,NNW,347,2.3,2.3,82,0.00,OVC,FEW,0.01,WeatherDisplay:10.37,2013-05-18 16:44:00,
2013-05-18 11:49:00,75.3,69.8,29.99,WNW,290,1.2,0.0,83,0.00,OVC,FEW,0.01,WeatherDisplay:10.37,2013-05-18 16:49:00,
2013-05-18 11:54:00,76.0,68.3,29.99,WNW,287,1.2,0.0,77,0.00,OVC,FEW,0.01,WeatherDisplay:10.37,2013-05-18 16:54:00,
2013-05-18 11:59:00,76.2,68.1,29.99,North,351,1.2,1.2,76,0.00,OVC,FEW,0.01,WeatherDisplay:10.37,2013-05-18 16:59:00,
2013-05-18 12:04:00,76.3,68.6,29.99,NNE,32,1.2,1.2,77,0.00,OVC,FEW,0.01,WeatherDisplay:10.37,2013-05-18 17:04:00,
2013-05-18 12:09:00,76.4,70.1,29.99,SW,229,1.2,1.2,81,0.00,OVC,FEW,0.01,WeatherDisplay:10.37,2013-05-18 17:09:00,
2013-05-18 12:14:00,76.5,69.1,29.99,WNW,296,1.2,1.2,78,0.00,OVC,FEW,0.01,WeatherDisplay:10.37,2013-05-18 17:14:00,
2013-05-18 12:19:00,76.9,68.8,29.98,NW,310,4.6,4.6,76,0.00,OVC,FEW,0.01,WeatherDisplay:10.37,2013-05-18 17:19:00,
2013-05-18 12:24:00,77.5,69.7,29.98,WNW,282,1.2,1.2,77,0.00,BKN,FEW,0.01,WeatherDisplay:10.37,2013-05-18 17:24:00,
2013-05-18 12:29:00,77.8,68.0,29.98,ENE,76,3.5,3.5,72,0.00,BKN,FEW,0.01,WeatherDisplay:10.37,2013-05-18 17:29:00,
2013-05-18 12:34:00,78.1,68.7,29.98,West,271,2.3,2.3,73,0.00,BKN,FEW,0.01,WeatherDisplay:10.37,2013-05-18 17:34:00,
2013-05-18 12:39:00,78.5,70.7,29.98,North,360,2.3,2.3,77,0.00,BKN,FEW,0.01,WeatherDisplay:10.37,2013-05-18 17:39:00,
2013-05-18 12:44:00,78.7,68.5,29.98,SSW,192,2.3,2.3,71,0.00,BKN,FEW,0.01,WeatherDisplay:10.37,2013-05-18 17:44:00,
2013-05-18 12:49:00,78.7,68.9,29.98,NNE,17,3.5,3.5,72,0.00,BKN,FEW,0.01,WeatherDisplay:10.37,2013-05-18 17:49:00,
2013-05-18 12:54:00,78.6,68.4,29.98,NW,316,1.2,1.2,71,0.00,BKN,FEW,0.01,WeatherDisplay:10.37,2013-05-18 17:54:00,
2013-05-18 12:59:00,78.9,69.5,29.98,West,269,6.9,6.9,73,0.00,BKN,FEW,0.01,WeatherDisplay:10.37,2013-05-18 17:59:00,
2013-05-18 13:04:00,79.3,68.2,29.98,South,185,6.9,6.9,69,0.00,BKN,FEW,0.01,WeatherDisplay:10.37,2013-05-18 18:04:00,
2013-05-18 13:09:00,79.4,69.2,29.98,South,182,2.3,2.3,71,0.00,BKN,FEW,0.01,WeatherDisplay:10.37,2013-05-18 18:09:00,
2013-05-18 13:14:00,79.8,69.1,29.97,WNW,285,2.3,2.3,70,0.00,BKN,FEW,0.01,WeatherDisplay:10.37,2013-05-18 18:14:00,
2013-05-18 13:19:00,79.7,69.0,29.97,West,267,2.3,2.3,70,0.00,BKN,FEW,0.01,WeatherDisplay:10.37,2013-05-18 18:19:00,
2013-05-18 13:24:00,79.7,69.0,29.97,North,355,4.6,4.6,70,0.00,BKN,FEW,0.01,WeatherDisplay:10.37,2013-05-18 18:24:00,
2013-05-18 13:29:00,79.5,68.9,29.97,NNW,333,3.5,3.5,70,0.00,BKN,FEW,0.01,WeatherDisplay:10.37,2013-05-18 18:29:00,
2013-05-18 13:34:00,79.2,69.4,29.97,West,281,1.2,0.0,72,0.00,BKN,FEW,0.01,WeatherDisplay:10.37,2013-05-18 18:34:00,
2013-05-18 13:39:00,79.4,68.8,29.97,SSW,213,4.6,4.6,70,0.00,BKN,FEW,0.01,WeatherDisplay:10.37,2013-05-18 18:39:00,
2013-05-18 13:44:00,79.3,67.8,29.97,NNW,340,4.6,4.6,68,0.00,BKN,FEW,0.01,WeatherDisplay:10.37,2013-05-18 18:44:00,
2013-05-18 13:49:00,79.1,69.7,29.96,NW,317,2.3,2.3,73,0.00,BKN,FEW,0.01,WeatherDisplay:10.37,2013-05-18 18:49:00,
2013-05-18 13:54:00,78.8,68.6,29.96,NW,325,3.5,3.5,71,0.00,BKN,FEW,0.01,WeatherDisplay:10.37,2013-05-18 18:54:00,
2013-05-18 13:59:00,78.8,69.8,29.96,NW,324,1.2,0.0,74,0.00,BKN,FEW,0.01,WeatherDisplay:10.37,2013-05-18 18:59:00,
2013-05-18 14:04:00,79.3,69.1,29.96,NW,321,4.6,4.6,71,0.00,FEW,,0.01,WeatherDisplay:10.37,2013-05-18 19:04:00,
2013-05-18 14:09:00,79.3,70.7,29.96,NNW,329,0.0,0.0,75,0.00,FEW,,0.01,WeatherDisplay:10.37,2013-05-18 19:09:00,
2013-05-18 14:14:00,79.4,68.3,29.96,SSW,209,4.6,4.6,69,0.00,FEW,,0.01,WeatherDisplay:10.37,2013-05-18 19:14:00,
2013-05-18 14:19:00,79.3,69.1,29.96,SSW,211,1.2,1.2,71,0.00,FEW,,0.01,WeatherDisplay:10.37,2013-05-18 19:19:00,
2013-05-18 14:24:00,79.3,68.2,29.96,SSW,211,0.0,0.0,69,0.00,FEW,,0.01,WeatherDisplay:10.37,2013-05-18 19:24:00,
2013-05-18 14:29:00,79.5,68.4,29.96,SSW,211,1.2,1.2,69,0.00,FEW,,0.01,WeatherDisplay:10.37,2013-05-18 19:29:00,
2013-05-18 14:34:00,80.1,69.0,29.95,SSW,206,3.5,3.5,69,0.00,FEW,,0.01,WeatherDisplay:10.37,2013-05-18 19:34:00,
2013-05-18 14:39:00,80.7,70.8,29.96,SSE,168,2.3,2.3,72,0.00,SCT,FEW,0.01,WeatherDisplay:10.37,2013-05-18 19:39:00,
2013-05-18 14:45:00,80.9,70.2,29.96,NNE,26,1.2,0.0,70,0.00,SCT,FEW,0.01,WeatherDisplay:10.37,2013-05-18 19:45:00,
2013-05-18 14:50:00,80.8,70.5,29.96,NNE,19,0.0,0.0,71,0.00,SCT,FEW,0.01,WeatherDisplay:10.37,2013-05-18 19:50:00,
2013-05-18 14:55:00,80.8,68.4,29.96,SW,236,2.3,0.0,66,0.00,SCT,FEW,0.01,WeatherDisplay:10.37,2013-05-18 19:55:00,
2013-05-18 15:00:00,81.2,70.1,29.95,SSW,202,1.2,1.2,69,0.00,SCT,FEW,0.01,WeatherDisplay:10.37,2013-05-18 20:00:00,
2013-05-18 15:05:00,81.9,69.4,29.95,ESE,109,1.2,1.2,66,0.00,BKN,FEW,0.01,WeatherDisplay:10.37,2013-05-18 20:05:00,
2013-05-18 15:10:00,82.3,69.8,29.95,ESE,119,1.2,0.0,66,0.00,BKN,FEW,0.01,WeatherDisplay:10.37,2013-05-18 20:10:00,
2013-05-18 15:15:00,82.3,69.8,29.95,West,279,3.5,3.5,66,0.00,BKN,FEW,0.01,WeatherDisplay:10.37,2013-05-18 20:15:00,
2013-05-18 15:20:00,82.0,70.0,29.95,WNW,294,0.0,1.2,67,0.00,BKN,FEW,0.01,WeatherDisplay:10.37,2013-05-18 20:20:00,
2013-05-18 15:25:00,82.0,69.5,29.94,West,277,2.3,2.3,66,0.00,BKN,FEW,0.01,WeatherDisplay:10.37,2013-05-18 20:25:00,
2013-05-18 15:30:00,82.1,68.3,29.94,West,269,0.0,0.0,63,0.00,BKN,FEW,0.01,WeatherDisplay:10.37,2013-05-18 20:30:00,
2013-05-18 15:35:00,82.4,69.4,29.94,WNW,303,3.5,3.5,65,0.00,BKN,FEW,0.01,WeatherDisplay:10.37,2013-05-18 20:35:00,
2013-05-18 15:40:00,82.4,68.5,29.94,NNW,343,2.3,2.3,63,0.00,SCT,FEW,0.01,WeatherDisplay:10.37,2013-05-18 20:40:00,
2013-05-18 15:45:00,82.3,68.4,29.94,NW,325,3.5,3.5,63,0.00,SCT,FEW,0.01,WeatherDisplay:10.37,2013-05-18 20:45:00,
2013-05-18 15:50:00,82.2,71.0,29.94,NW,325,1.2,0.0,69,0.00,SCT,FEW,0.01,WeatherDisplay:10.37,2013-05-18 20:50:00,
2013-05-18 15:55:00,82.4,69.4,29.94,NW,319,3.5,3.5,65,0.00,SCT,FEW,0.01,WeatherDisplay:10.37,2013-05-18 20:55:00,
2013-05-18 16:00:00,82.8,69.8,29.94,North,360,4.6,4.6,65,0.00,SCT,FEW,0.01,WeatherDisplay:10.37,2013-05-18 21:00:00,
2013-05-18 16:05:00,82.5,69.5,29.94,NNW,331,3.5,3.5,65,0.00,FEW,,0.01,WeatherDisplay:10.37,2013-05-18 21:05:00,
2013-05-18 16:10:00,82.5,68.6,29.94,West,263,3.5,3.5,63,0.00,FEW,,0.01,WeatherDisplay:10.37,2013-05-18 21:10:00,
2013-05-18 16:15:00,82.7,68.8,29.93,NNW,345,4.6,4.6,63,0.00,FEW,,0.01,WeatherDisplay:10.37,2013-05-18 21:15:00,
2013-05-18 16:20:00,82.8,68.9,29.93,NW,309,1.2,1.2,63,0.00,FEW,,0.01,WeatherDisplay:10.37,2013-05-18 21:20:00,
2013-05-18 16:25:00,82.9,69.5,29.93,NW,306,1.2,1.2,64,0.00,FEW,,0.01,WeatherDisplay:10.37,2013-05-18 21:25:00,
2013-05-18 16:30:00,83.2,71.1,29.93,North,355,1.2,1.2,67,0.00,FEW,,0.01,WeatherDisplay:10.37,2013-05-18 21:30:00,
2013-05-18 16:35:00,83.1,68.3,29.93,NW,309,0.0,0.0,61,0.00,FEW,,0.01,WeatherDisplay:10.37,2013-05-18 21:35:00,
2013-05-18 16:40:00,83.2,69.8,29.93,WNW,298,2.3,2.3,64,0.00,FEW,,0.01,WeatherDisplay:10.37,2013-05-18 21:40:00,
2013-05-18 16:45:00,83.2,70.2,29.93,North,355,2.3,2.3,65,0.00,FEW,,0.01,WeatherDisplay:10.37,2013-05-18 21:45:00,
2013-05-18 16:50:00,83.4,69.5,29.93,NW,319,2.3,2.3,63,0.00,FEW,,0.01,WeatherDisplay:10.37,2013-05-18 21:50:00,
2013-05-18 16:55:00,83.3,71.2,29.93,NNW,327,2.3,2.3,67,0.00,FEW,,0.01,WeatherDisplay:10.37,2013-05-18 21:55:00,
2013-05-18 17:00:00,83.2,68.8,29.93,NNW,341,3.5,3.5,62,0.00,FEW,,0.01,WeatherDisplay:10.37,2013-05-18 22:00:00,
2013-05-18 17:05:00,83.0,70.9,29.93,WNW,291,0.0,0.0,67,0.00,FEW,,0.01,WeatherDisplay:10.37,2013-05-18 22:05:00,
2013-05-18 17:10:00,82.9,68.5,29.93,WNW,294,1.2,1.2,62,0.00,FEW,,0.01,WeatherDisplay:10.37,2013-05-18 22:10:00,
2013-05-18 17:15:00,82.9,70.8,29.93,WNW,294,1.2,0.0,67,0.00,FEW,,0.01,WeatherDisplay:10.37,2013-05-18 22:15:00,
2013-05-18 17:20:00,83.0,70.0,29.93,WSW,242,1.2,1.2,65,0.00,FEW,,0.01,WeatherDisplay:10.37,2013-05-18 22:20:00,
2013-05-18 17:25:00,82.9,71.7,29.93,WSW,242,0.0,0.0,69,0.00,FEW,,0.01,WeatherDisplay:10.37,2013-05-18 22:25:00,
2013-05-18 17:30:00,82.7,68.4,29.93,WNW,298,0.0,0.0,62,0.00,FEW,,0.01,WeatherDisplay:10.37,2013-05-18 22:30:00,
2013-05-18 17:35:00,82.8,69.8,29.93,WNW,298,0.0,0.0,65,0.00,FEW,,0.01,WeatherDisplay:10.37,2013-05-18 22:35:00,
2013-05-18 17:40:00,83.1,69.2,29.93,SW,231,2.3,2.3,63,0.00,FEW,,0.01,WeatherDisplay:10.37,2013-05-18 22:40:00,
2013-05-18 17:45:00,83.1,70.1,29.93,SW,224,0.0,0.0,65,0.00,FEW,,0.01,WeatherDisplay:10.37,2013-05-18 22:45:00,
2013-05-18 17:50:00,82.7,68.4,29.93,SW,224,0.0,0.0,62,0.00,FEW,,0.01,WeatherDisplay:10.37,2013-05-18 22:50:00,
2013-05-18 17:55:00,82.7,68.8,29.93,SW,224,0.0,0.0,63,0.00,FEW,,0.01,WeatherDisplay:10.37,2013-05-18 22:55:00,
2013-05-18 18:00:00,82.7,68.8,29.93,SW,224,0.0,0.0,63,0.00,FEW,,0.01,WeatherDisplay:10.37,2013-05-18 23:00:00,
2013-05-18 18:05:00,82.6,69.2,29.93,SW,224,0.0,0.0,64,0.00,BKN,FEW,0.01,WeatherDisplay:10.37,2013-05-18 23:05:00,
2013-05-18 18:10:00,82.7,70.2,29.93,SW,224,0.0,0.1,66,0.00,BKN,FEW,0.01,WeatherDisplay:10.37,2013-05-18 23:10:00,
2013-05-18 18:15:00,82.5,68.2,29.93,SW,224,0.0,0.0,62,0.00,BKN,FEW,0.01,WeatherDisplay:10.37,2013-05-18 23:15:00,
2013-05-18 18:20:00,82.4,70.3,29.93,SW,224,0.0,0.0,67,0.00,BKN,FEW,0.01,WeatherDisplay:10.37,2013-05-18 23:20:00,
2013-05-18 18:25:00,81.9,70.3,29.93,SW,224,0.0,0.0,68,0.00,BKN,FEW,0.01,WeatherDisplay:10.37,2013-05-18 23:25:00,
2013-05-18 18:30:00,81.6,69.1,29.93,SW,224,1.2,1.2,66,0.00,BKN,FEW,0.01,WeatherDisplay:10.37,2013-05-18 23:30:00,
2013-05-18 18:35:00,81.2,68.3,29.92,SW,224,1.2,1.2,65,0.00,BKN,FEW,0.01,WeatherDisplay:10.37,2013-05-18 23:35:00,
2013-05-18 18:40:00,80.9,68.5,29.93,SW,224,0.0,0.0,66,0.00,BKN,FEW,0.01,WeatherDisplay:10.37,2013-05-18 23:40:00,
2013-05-18 18:45:00,80.5,69.0,29.93,SW,224,0.0,0.0,68,0.00,BKN,FEW,0.01,WeatherDisplay:10.37,2013-05-18 23:45:00,
2013-05-18 18:50:00,80.3,69.6,29.93,SW,224,0.0,0.0,70,0.00,BKN,FEW,0.01,WeatherDisplay:10.37,2013-05-18 23:50:00,
2013-05-18 18:55:00,79.9,70.1,29.93,SW,224,0.0,0.0,72,0.00,BKN,FEW,0.01,WeatherDisplay:10.37,2013-05-18 23:55:00,
2013-05-18 19:00:00,79.4,70.0,29.92,SW,224,0.0,0.0,73,0.00,BKN,FEW,0.01,WeatherDisplay:10.37,2013-05-19 00:00:00,
2013-05-18 19:05:00,79.1,70.1,29.92,SW,224,0.0,0.0,74,0.00,BKN,FEW,0.01,WeatherDisplay:10.37,2013-05-19 00:05:00,
2013-05-18 19:10:00,78.9,70.3,29.93,SW,224,0.0,0.0,75,0.00,BKN,FEW,0.01,WeatherDisplay:10.37,2013-05-19 00:10:00,
2013-05-18 19:15:00,78.7,70.5,29.93,SW,224,0.0,0.0,76,0.00,BKN,FEW,0.01,WeatherDisplay:10.37,2013-05-19 00:15:00,
2013-05-18 19:20:00,78.5,71.1,29.92,ESE,107,2.3,2.3,78,0.00,CLR,FEW,0.01,WeatherDisplay:10.37,2013-05-19 00:20:00,
2013-05-18 19:25:00,78.3,70.9,29.92,ESE,107,1.2,1.2,78,0.00,CLR,FEW,0.01,WeatherDisplay:10.37,2013-05-19 00:25:00,
2013-05-18 19:30:00,78.1,71.1,29.93,ESE,107,0.0,0.0,79,0.00,CLR,FEW,0.01,WeatherDisplay:10.37,2013-05-19 00:30:00,
2013-05-18 19:35:00,77.9,71.2,29.93,ESE,107,0.0,0.0,80,0.00,CLR,FEW,0.01,WeatherDisplay:10.37,2013-05-19 00:35:00,
2013-05-18 19:40:00,77.6,70.9,29.93,ESE,107,0.0,0.0,80,0.00,CLR,FEW,0.01,WeatherDisplay:10.37,2013-05-19 00:40:00,
2013-05-18 19:45:00,77.1,70.8,29.93,ESE,107,0.0,0.0,81,0.00,CLR,FEW,0.01,WeatherDisplay:10.37,2013-05-19 00:45:00,
2013-05-18 19:50:00,76.4,70.5,29.93,ESE,107,0.0,0.0,82,0.00,CLR,FEW,0.01,WeatherDisplay:10.37,2013-05-19 00:50:00,
2013-05-18 19:55:00,75.9,70.4,29.93,ESE,107,0.0,0.0,83,0.00,CLR,FEW,0.01,WeatherDisplay:10.37,2013-05-19 00:55:00,
2013-05-18 20:00:00,75.5,70.7,29.93,ESE,107,0.0,0.0,85,0.00,CLR,FEW,0.01,WeatherDisplay:10.37,2013-05-19 01:00:00,
2013-05-18 20:05:00,75.0,70.5,29.94,ESE,107,0.0,0.0,86,0.00,OVC,FEW,0.01,WeatherDisplay:10.37,2013-05-19 01:05:00,
2013-05-18 20:10:00,74.6,70.1,29.94,ESE,107,0.0,0.0,86,0.00,OVC,FEW,0.01,WeatherDisplay:10.37,2013-05-19 01:10:00,
2013-05-18 20:15:00,74.3,70.2,29.94,ESE,107,0.0,0.0,87,0.00,OVC,FEW,0.01,WeatherDisplay:10.37,2013-05-19 01:15:00,
2013-05-18 20:21:00,74.1,70.3,29.94,ESE,107,0.0,0.0,88,0.00,OVC,FEW,0.01,WeatherDisplay:10.37,2013-05-19 01:21:00,
2013-05-18 20:26:00,74.0,70.2,29.94,ESE,107,0.0,0.0,88,0.00,OVC,FEW,0.01,WeatherDisplay:10.37,2013-05-19 01:26:00,
2013-05-18 20:31:00,73.9,70.1,29.94,ESE,107,0.0,0.0,88,0.00,OVC,FEW,0.01,WeatherDisplay:10.37,2013-05-19 01:31:00,
2013-05-18 20:36:00,73.7,70.3,29.94,ESE,107,0.0,0.0,89,0.00,OVC,FEW,0.01,WeatherDisplay:10.37,2013-05-19 01:36:00,
2013-05-18 20:41:00,73.5,70.1,29.94,ESE,107,0.0,0.0,89,0.00,OVC,FEW,0.01,WeatherDisplay:10.37,2013-05-19 01:41:00,
2013-05-18 20:46:00,73.3,70.2,29.94,ESE,107,0.0,0.0,90,0.00,OVC,FEW,0.01,WeatherDisplay:10.37,2013-05-19 01:46:00,
2013-05-18 20:51:00,73.0,69.9,29.94,ESE,107,0.0,0.0,90,0.00,OVC,FEW,0.01,WeatherDisplay:10.37,2013-05-19 01:51:00,
2013-05-18 20:56:00,72.8,70.0,29.94,ESE,107,0.0,0.0,91,0.00,OVC,FEW,0.01,WeatherDisplay:10.37,2013-05-19 01:56:00,
2013-05-18 21:01:00,72.5,69.7,29.94,ESE,107,0.0,0.0,91,0.00,OVC,FEW,0.01,WeatherDisplay:10.37,2013-05-19 02:01:00,
2013-05-18 21:06:00,72.3,69.5,29.94,ESE,107,0.0,0.0,91,0.00,-DZ,FEW,0.01,WeatherDisplay:10.37,2013-05-19 02:06:00,
2013-05-18 21:11:00,72.2,69.7,29.94,ESE,107,0.0,0.0,92,0.00,-DZ,FEW,0.01,WeatherDisplay:10.37,2013-05-19 02:11:00,
2013-05-18 21:16:00,72.1,69.6,29.94,ESE,108,0.0,0.0,92,0.00,-DZ,FEW,0.01,WeatherDisplay:10.37,2013-05-19 02:16:00,
2013-05-18 21:21:00,72.1,69.6,29.94,ESE,108,0.0,0.0,92,0.00,-DZ,FEW,0.01,WeatherDisplay:10.37,2013-05-19 02:21:00,
2013-05-18 21:26:00,71.9,69.4,29.94,ESE,108,0.0,0.0,92,0.00,-DZ,FEW,0.01,WeatherDisplay:10.37,2013-05-19 02:26:00,
2013-05-18 21:31:00,71.7,69.6,29.94,ESE,108,0.0,0.0,93,0.00,-DZ,FEW,0.01,WeatherDisplay:10.37,2013-05-19 02:31:00,
2013-05-18 21:36:00,71.5,69.4,29.94,ESE,108,0.0,0.0,93,0.00,OVC,FEW,0.01,WeatherDisplay:10.37,2013-05-19 02:36:00,
2013-05-18 21:41:00,71.3,69.2,29.94,ESE,108,0.0,0.0,93,0.00,OVC,FEW,0.01,WeatherDisplay:10.37,2013-05-19 02:41:00,
2013-05-18 21:46:00,71.2,69.1,29.94,ESE,108,0.0,0.0,93,0.00,OVC,FEW,0.01,WeatherDisplay:10.37,2013-05-19 02:46:00,
2013-05-18 21:51:00,71.0,69.2,29.94,ESE,108,0.0,0.0,94,0.00,OVC,FEW,0.01,WeatherDisplay:10.37,2013-05-19 02:51:00,
2013-05-18 21:56:00,70.8,69.0,29.95,ESE,108,0.0,0.0,94,0.00,OVC,FEW,0.01,WeatherDisplay:10.37,2013-05-19 02:56:00,
2013-05-18 22:01:00,70.6,68.8,29.95,ESE,108,0.0,0.0,94,0.00,OVC,FEW,0.01,WeatherDisplay:10.37,2013-05-19 03:01:00,
2013-05-18 22:06:00,70.4,68.6,29.94,ESE,108,0.0,0.0,94,0.00,OVC,FEW,0.01,WeatherDisplay:10.37,2013-05-19 03:06:00,
2013-05-18 22:11:00,70.4,68.6,29.94,SE,131,0.0,0.0,94,0.00,OVC,FEW,0.01,WeatherDisplay:10.37,2013-05-19 03:11:00,
2013-05-18 22:16:00,70.3,68.5,29.94,SE,131,0.0,0.0,94,0.00,OVC,FEW,0.01,WeatherDisplay:10.37,2013-05-19 03:16:00,
2013-05-18 22:21:00,70.2,68.7,29.94,SE,131,0.0,0.0,95,0.00,FEW,,0.01,WeatherDisplay:10.37,2013-05-19 03:21:00,
2013-05-18 22:26:00,70.2,68.7,29.94,SE,133,0.0,0.0,95,0.00,FEW,,0.01,WeatherDisplay:10.37,2013-05-19 03:26:00,
2013-05-18 22:31:00,70.1,68.6,29.94,SE,133,0.0,0.0,95,0.00,FEW,,0.01,WeatherDisplay:10.37,2013-05-19 03:31:00,
2013-05-18 22:36:00,70.1,68.6,29.94,SE,133,0.0,0.0,95,0.00,FEW,,0.01,WeatherDisplay:10.37,2013-05-19 03:36:00,
2013-05-18 22:41:00,70.0,68.5,29.94,SE,133,0.0,0.0,95,0.00,FEW,,0.01,WeatherDisplay:10.37,2013-05-19 03:41:00,
2013-05-18 22:46:00,70.0,68.5,29.94,SE,133,0.0,0.0,95,0.00,FEW,,0.01,WeatherDisplay:10.37,2013-05-19 03:46:00,
2013-05-18 22:51:00,70.1,68.6,29.94,SE,128,0.0,0.0,95,0.00,FEW,,0.01,WeatherDisplay:10.37,2013-05-19 03:51:00,
2013-05-18 22:56:00,70.1,68.6,29.94,SE,128,0.0,0.0,95,0.00,FEW,,0.01,WeatherDisplay:10.37,2013-05-19 03:56:00,
2013-05-18 23:01:00,70.1,68.6,29.94,SE,128,0.0,0.0,95,0.00,FEW,,0.01,WeatherDisplay:10.37,2013-05-19 04:01:00,
2013-05-18 23:06:00,70.1,68.6,29.94,SE,128,0.0,0.0,95,0.00,CLR,FEW,0.01,WeatherDisplay:10.37,2013-05-19 04:06:00,
2013-05-18 23:11:00,70.3,69.1,29.94,SE,128,0.0,0.0,96,0.00,CLR,FEW,0.01,WeatherDisplay:10.37,2013-05-19 04:11:00,
2013-05-18 23:16:00,70.4,68.9,29.94,SE,128,0.0,0.0,95,0.00,CLR,FEW,0.01,WeatherDisplay:10.37,2013-05-19 04:16:00,
2013-05-18 23:21:00,70.4,68.6,29.94,SE,128,0.0,0.0,94,0.00,CLR,FEW,0.01,WeatherDisplay:10.37,2013-05-19 04:21:00,
2013-05-18 23:26:00,70.4,68.6,29.94,SE,128,0.0,0.0,94,0.00,CLR,FEW,0.01,WeatherDisplay:10.37,2013-05-19 04:26:00,
2013-05-18 23:31:00,70.3,68.5,29.94,SE,128,0.0,0.0,94,0.00,CLR,FEW,0.01,WeatherDisplay:10.37,2013-05-19 04:31:00,
2013-05-18 23:36:00,70.3,68.5,29.93,SE,128,0.0,0.0,94,0.00,CLR,FEW,0.01,WeatherDisplay:10.37,2013-05-19 04:36:00,
2013-05-18 23:41:00,70.3,68.5,29.93,SE,128,0.0,0.0,94,0.00,CLR,FEW,0.01,WeatherDisplay:10.37,2013-05-19 04:41:00,
2013-05-18 23:46:00,70.2,68.4,29.94,SE,128,0.0,0.0,94,0.00,CLR,FEW,0.01,WeatherDisplay:10.37,2013-05-19 04:46:00,
2013-05-18 23:51:00,70.1,68.3,29.94,SE,128,0.0,0.0,94,0.00,CLR,FEW,0.01,WeatherDisplay:10.37,2013-05-19 04:51:00,
2013-05-18 23:56:00,70.1,68.3,29.94,SE,128,0.0,0.0,94,0.00,CLR,FEW,0.01,WeatherDisplay:10.37,2013-05-19 04:56:00,